Flag for U.S.A. Weather past 2 weeks in Syracuse, New York, U.S.A.

Now
2 °F

Passing clouds.


Feels Like: -13 °F
Forecast: 1 / 19 °F
Wind: 9 mph from West

Location: Syracuse Hancock International Airport

Current Time: Mar 6, 2015 at 2:36:22 AM

Latest Report: Mar 6, 2015 at 1:54 AM


Visibility: 10 mi

Pressure: 30.48 "Hg

Humidity: 88%

Dew point: -1 °F

Location of SyracuseLocation

Historic Weather in Syracuse — Graph

°F

Syracuse temperature yesterday

Maximum temperature yesterday: 21 °F (at 12:02 AM)
Minimum temperature yesterday: 5 °F (at 11:54 PM)
Average temperature yesterday: 12 °F

Past Weeks' High & Low Weather Summary

 TemperatureHumidityPressure
High32 °F (Mar 3, 11:54 PM)100% (Feb 19, 12:04 AM)30.81 "Hg (Feb 19, 12:04 AM)
Low-45 °F (Feb 27, 4:54 AM)33% (Feb 24, 2:54 PM)29.62 "Hg (Mar 3, 10:54 PM)
Average12 °F80%30.18 "Hg
* Reported Feb 19 12:04 AM — Mar 6 12:54 AM, Syracuse, Weather by CustomWeather, © 2015

Note: Actual official high and low records may vary slightly from our data, if they occured in-between our weather recording intervals... More about our weather records

Advertising

Syracuse weather history for previous 24 hours

 ConditionsComfort  
Time TempWeatherWind HumidityBarometerVisibility
12:54 AM
Fri, Mar 6
4 °FLight snow. Overcast.10 mph88%30.47 "Hg9 mi
11:54 PM
Thu, Mar 5
5 °FLight snow. Passing clouds.13 mph87%30.46 "Hg10 mi
10:54 PM7 °FLight snow. Overcast.15 mph87%30.46 "Hg9 mi
9:54 PM8 °FLight snow. Overcast.14 mph87%30.44 "Hg9 mi
8:54 PM8 °FLight snow. Passing clouds.13 mph87%30.41 "Hg9 mi
7:54 PM7 °FPassing clouds.12 mph83%30.39 "Hg10 mi
6:54 PM7 °FPassing clouds.6 mph76%30.37 "Hg10 mi
5:54 PM10 °FBroken clouds.12 mph64%30.34 "Hg10 mi
4:54 PM11 °FPartly sunny.13 mph67%30.30 "Hg10 mi
3:54 PM12 °FPartly sunny.12 mph64%30.29 "Hg10 mi
2:54 PM12 °FBroken clouds.12 mph67%30.28 "Hg10 mi
1:54 PM12 °FMore clouds than sun.10 mph70%30.27 "Hg10 mi
12:54 PM11 °FMore clouds than sun.10 mph73%30.28 "Hg10 mi
11:54 AM11 °FMore clouds than sun.9 mph73%30.27 "Hg10 mi
10:54 AM10 °FMore clouds than sun.10 mph73%30.25 "Hg10 mi
9:54 AM10 °FCloudy.12 mph73%30.27 "Hg10 mi
8:54 AM10 °FCloudy.12 mph73%30.27 "Hg10 mi
7:54 AM11 °FBroken clouds.14 mph77%30.23 "Hg10 mi
7:00 AM12 °FMostly cloudy.14 mph70%30.19 "Hg10 mi
5:54 AM13 °FOvercast.15 mph67%30.18 "Hg10 mi
4:54 AM14 °FOvercast.12 mph67%30.16 "Hg10 mi
3:54 AM15 °FLight snow. Overcast.15 mph74%30.13 "Hg9 mi
2:54 AM17 °FLight snow. Overcast.20 mph74%30.09 "Hg9 mi
2:04 AM19 °FLight snow. Ice fog.14 mph100%30.05 "Hg2 mi
Weather by CustomWeather, © 2015

See weather overviewHow to use our weather pages